This demonstration page uses our WeatherBlox Daily Observations layout. Learn more.

Left ArrowRight Arrow

34.02893, -84.19858

Hourly Observations for February 1, 2017

Temp ( °F °C ) Dew Point ( °F °C ) Humidity (%) Winds ( mph kmh ) Pressure ( in mb ) Visibility ( mi km ) Precip ( " mm )
12:53 am 00:53 Clear 55 12.8 35 1.7 47 47 SW 9 15 30.04 1017 10 16 0.00 0.00
1:53 am 01:53 Clear 55 12.8 35 1.7 47 47 SW 8 13 30.04 1017 10 16 0.00 0.00
2:53 am 02:53 Clear 54 12.2 37 2.8 53 53 SW 12 19 30.05 1018 10 16 0.00 0.00
3:53 am 03:53 Clear 52 11.1 38 3.3 59 59 SW 9 15 30.05 1018 10 16 0.00 0.00
4:53 am 04:53 Clear 50 10 40 4.4 68 68 SW 10 17 30.06 1018 10 16 0.00 0.00
5:53 am 05:53 Clear 50 10 41 5 71 71 WSW 3 6 30.06 1018 10 16 0.00 0.00
6:53 am 06:53 Clear 48 8.9 42 5.6 80 80 SW 9 15 30.09 1019 10 16 0.00 0.00
7:53 am 07:53 Sunny 49 9.4 43 6.1 80 80 SW 9 15 30.11 1020 10 16 0.00 0.00
8:53 am 08:53 Mostly Sunny 53 11.7 45 7.2 74 74 SW 6 9 30.13 1020 10 16 0.00 0.00
9:53 am 09:53 Sunny 57 13.9 47 8.3 69 69 W 12 19 30.14 1021 10 16 0.00 0.00
10:53 am 10:53 Sunny 60 15.6 48 8.9 65 65 WSW 15 24 30.14 1021 10 16 0.00 0.00
11:53 am 11:53 Mostly Cloudy 64 17.8 48 8.9 56 56 WSW 15 24 30.11 1020 10 16 0.00 0.00
12:53 pm 12:53 Mostly Cloudy 64 17.8 46 7.8 52 52 W 15 24 30.09 1019 10 16 0.00 0.00
1:53 pm 13:53 Sunny 68 20 47 8.3 47 47 SW 14 22 30.06 1018 10 16 0.00 0.00
2:53 pm 14:53 Mostly Sunny 66 18.9 45 7.2 47 47 SW 16 26 30.04 1017 10 16 0.00 0.00
3:53 pm 15:53 Sunny 68 20 44 6.7 42 42 WSW 12 19 30.04 1017 10 16 0.00 0.00
4:53 pm 16:53 Mostly Sunny 68 20 43 6.1 40 40 WSW 16 26 30.06 1018 10 16 0.00 0.00
5:53 pm 17:53 Partly Cloudy 66 18.9 43 6.1 43 43 WSW 9 15 30.08 1019 10 16 0.00 0.00
6:53 pm 18:53 Clear 61 16 27 -3 27 27 SW 5 7 30.03 1017 10 16 0.00 0.00
7:53 pm 19:53 Mostly Cloudy 60 15.6 43 6.1 53 53 SW 5 7 30.12 1020 10 16 0.00 0.00
8:53 pm 20:53 Mostly Clear 57 13.9 43 6.1 60 60 SW 6 9 30.12 1020 10 16 0.00 0.00
9:53 pm 21:53 Clear 55 12.8 43 6.1 64 64 SW 6 9 30.12 1020 10 16 0.00 0.00
10:53 pm 22:53 Clear 55 12.8 43 6.1 64 64 SW 9 15 30.12 1020 10 16 0.00 0.00
11:53 pm 23:53 Clear 56 13.3 43 6.1 62 62 SW 7 11 30.11 1020 10 16 0.00 0.00

Powered by AerisWeather